Самтредиа

Грузия     42°09′54″N   42°20′51″E
В апреле 2022 года жителям России запретили посещать сайт meteo.paraplan.net по решению Генеральной прокуратуры. Аудитория сайта уменьшилась в 10 раз. Владельцы сайта не видят смысла в поддержке погодного сервера в таких условиях. Сайт будет закрыт в октябре.
темп.,
°C
ветер,
м/с
пор.,
м/с
влажн.,
%
обл.,
%
осадки,
мм/ч
давл.,
гПа
погр.,
м
30 сентября, пт
пт3001:00+16в22920 0.0 101622
04:00+16в34880 0.0 101757
07:00+15всв35810 0.0 101771
10:00+22в35590 0.0 1017263
13:00+27св11450 0.0 1016585
16:00+29з23380 0.0 1016913
19:00+21з33650 0.0 101722
22:00+18з11730 0.0 101911
1 октября, сб
сб101:00+16всв22790 0.0 102019
04:00+16всв33720 0.0 102036
07:00+15всв33620 0.0 102141
10:00+21в34510 0.0 1021224
13:00+27з11410 0.0 1020564
16:00+28з33390 0.0 1019998
19:00+20з34670 0.0 101943
22:00+17сз01754 0.0 102011
2 октября, вс
вс201:00+16в33810 0.0 101938
04:00+15всв35700 0.0 101870
07:00+15всв35635 0.0 101680
10:00+22в51352100 0.0 1014637
13:00+29в912345 0.0 10111371
16:00+30в8113251 0.0 1008825
19:00+27в91631100 0.0 1007714
22:00+26в101833100 0.0 1007892
3 октября, пн
пн301:00+25в111832100 0.0 1006907
04:00+24в111934100 0.0 1005851
07:00+23в101837100 0.0 1006705
10:00+24зюз476562 0.0 10111022
13:00+25зюз4454100 0.0 10101321
16:00+25зюз665796 0.0 10101263
19:00+19з588372 0.1 1013382
22:00+18з1290100 0.1 101587
4 октября, вт
вт401:00+18зюз2396100 1.9 1015163
04:00+17юз3596100 4.0 1015206
07:00+17зюз2494100 0.2 1016179
10:00+17з0192100 0.4 1017124
13:00+17з1291100 0.1 1018203
16:00+17зсз1292100 0.4 1018193
19:00+16юз119589 0.1 102013
22:00+16св259799 0.8 1018168